User: anonymous   Login
Location: Unspecified
(0.0000°N, 0.0000°E)
Time: 00:15:18
(UTC+00:00)
Language:

STARLINK-32799 - Orbit

View from above orbital plane
View from above orbital plane
View from above satellite
View from above satellite

Ground track
Ground track

The orbit is defined by the following mean orbital elements,

1 62847U          26103.74178117 +.00000000 +00000-0 +29676-3 0 00001
2 62847  43.0022 250.8564 0002073 277.2930  82.7686 15.27590352    08
Epoch (UTC): 13 April 2026 17:48:09
Eccentricity: 0.0002073
inclination: 43.0022°
perigee height: 482 km
apogee height: 484 km
right ascension of ascending node: 250.8564°
argument of perigee: 277.2930°
revolutions per day: 15.27590352
mean anomaly at epoch: 82.7686°

The dashed part of the orbit path shows where the satellite is in the earth's shadow,  

DLR